Regional Weather Roundup
Issued by NWS

Home | Current Version | Previous Version | Text Only | Print | Product List | Glossary Off
Versions: 1 2 3 4 5 6 7 8 9 10 11 12 13 14 15 16 17 18 19 20 21 22 23 24 25 26 27 28 29 30 31 32 33 34 35 36 37 38 39 40 41 42 43 44 45 46 47 48 49 50

000
ASUS43 KLSX 012259
RWRMO

WEATHER SUMMARY FOR MISSOURI
NATIONAL WEATHER SERVICE SPRINGFIELD MO
600 PM CDT WED JUL 01 2015

NOTE: "FAIR" INDICATES FEW OR NO CLOUDS BELOW 12,000 FEET WITH NO
       SIGNIFICANT WEATHER AND/OR OBSTRUCTIONS TO VISIBILITY.
       CURRENT SKY AND/OR WEATHER CONDITIONS ARE NOT AVAILABLE FOR
       CHILLICOTHE AND FARMINGTON.

MOZ001>031-035>038-043-044-053-054-020000-
...NORTHERN AND WESTERN MISSOURI...

CITY           SKY/WX    TMP DP  RH WIND       PRES   REMARKS
KANSAS CTY INT PTSUNNY   84  74  71 SE6       29.82S HX  91
KANSAS C DTWN  PTSUNNY   86  75  69 S6        29.79F HX  95
LEE`S SUMMIT   PTSUNNY   82  74  76 SE8       29.82F
ST JOSEPH      PTSUNNY   84  74  71 NE6       29.82S HX  91
CHILLICOTHE      N/A     83  73  72 S3        29.84F
KIRKSVILLE     CLOUDY    81  69  67 VRB5      29.88S

$$
MOZ066>068-077>081-088>096-101>105-020000-
...SOUTHWEST MISSOURI...

CITY           SKY/WX    TMP DP  RH WIND       PRES   REMARKS
SPRINGFIELD    MOSUNNY   84  74  71 S17       29.86F HX  91
JOPLIN         CLOUDY    85  74  69 S15       29.84R HX  92

$$
MOZ032>034-039>042-045>050-055>058-069>072-020000-
...CENTRAL MISSOURI...

CITY           SKY/WX    TMP DP  RH WIND       PRES   REMARKS
COLUMBIA       PTSUNNY   80  72  76 SE5       29.86F
JEFFERSON CITY PTSUNNY   81  71  71 S7        29.85S
ROLLA          PTSUNNY   79  72  79 SE6       29.87F
SEDALIA        PTSUNNY   83  73  72 S6        29.85F
OSAGE BEACH    MOSUNNY   84  72  65 S3        29.86S

$$
MOZ051-052-059>065-020000-
...EAST CENTRAL MISSOURI...

CITY           SKY/WX    TMP DP  RH WIND       PRES   REMARKS
ST LOUIS INTL  PTSUNNY   84  68  58 CALM      29.86S
SPIRIT OF STL  PTSUNNY   82  73  74 SW5       29.86R
ST CHARLES     MOSUNNY   82  69  64 CALM      29.85R

$$
MOZ072>076-082>087-097>100-106>115-020000-
...SOUTH CENTRAL AND SOUTHEAST MISSOURI...

CITY           SKY/WX    TMP DP  RH WIND       PRES   REMARKS
CAPE GIRARDEAU PTSUNNY   81  72  74 SW13      29.89S
FARMINGTON     PTSUNNY   81  72  74 SW6       29.94R
WEST PLAINS    PTSUNNY   79  72  79 S7        29.90F

$$



USA.gov is the U.S. government's official web portal to all federal, state and local government web resources and services.